Weather History for Gillette, WY

Change the Weather History Date:

Saturday, March 30, 2013

  Actual Average Record
Temperature  
Mean Temperature 39 °F 38 °F  
Max Temperature 55 °F 51 °F 75 °F (1978)
Min Temperature 23 °F 25 °F -13 °F (1936)
Degree Days  
Heating Degree Days 26 27  
Month to date heating degree days 939 911  
Since 1 July heating degree days 6062 6319  
Cooling Degree Days 0 0  
Month to date cooling degree days 0 0  
Year to date cooling degree days 0 0  
Moisture  
Dew Point 32 °F    
Average Humidity 62    
Maximum Humidity 92    
Minimum Humidity 32    
Precipitation  
Precipitation 0.00 in 0.04 in 0.45 in (1944)
Month to date precipitation 0.28 0.93  
Year to date precipitation 1.41 1.71  
Sea Level Pressure  
Sea Level Pressure 30.10 in    
Wind  
Wind Speed 11 mph (WNW)    
Max Wind Speed 33 mph    
Max Gust Speed 39 mph    
Visibility 10 miles    
Events      
T = Trace of Precipitation, MM = Missing Value Source: NWS Daily Summary

Daily Weather History Graph

Daily Weather History Graph

Search for Another Location

Airport:

Trip Planner

Search our weather history database for the weather conditions in past years. The results will help you decide how hot, cold, wet, or windy it might be!

Date:

Astronomy

Mar. 30, 2013 Rise Set
Actual Time 6:46 AM MDT 7:27 PM MDT
Civil Twilight 6:17 AM MDT 7:56 PM MDT
Nautical Twilight 5:42 AM MDT 8:31 PM MDT
Astronomical Twilight 5:06 AM MDT 9:07 PM MDT
Moon 11:46 PM MDT (3/30) 8:35 AM MDT (3/30)
Length of Visible Light 13h 39m
Length of Day
12h 41m
Waning Gibbous, 86% of the Moon is Illuminated
Mar 30
Waning Gibbous
Apr 2
Last Quarter
Apr 10
New
Apr 18
First Quarter
Apr 25
Full

Hourly Weather History & Observations

Time (MDT) Temp. Windchill Dew Point Humidity Pressure Visibility Wind Dir Wind Speed Gust Speed Precip Events Conditions
12:53 AM 42.1 °F 38.4 °F 39.0 °F 89% 30.05 in 10.0 mi South 5.8 mph - 0.00 in   Overcast
1:53 AM 41.0 °F - 37.0 °F 86% 30.06 in 10.0 mi Calm Calm - N/A   Mostly Cloudy
2:53 AM 39.9 °F 37.8 °F 36.0 °F 86% 30.07 in 10.0 mi WNW 3.5 mph - N/A   Overcast
3:53 AM 39.9 °F 35.8 °F 36.0 °F 86% 30.06 in 10.0 mi West 5.8 mph - N/A   Overcast
4:53 AM 39.9 °F 34.5 °F 36.0 °F 86% 30.09 in 10.0 mi NW 8.1 mph - N/A   Overcast
5:09 AM 39.2 °F 35.9 °F 37.4 °F 93% 30.11 in 10.0 mi North 4.6 mph - N/A   Overcast
5:21 AM 39.2 °F 35.9 °F 35.6 °F 87% 30.10 in 10.0 mi NNW 4.6 mph - N/A   Overcast
5:53 AM 39.0 °F 33.4 °F 37.0 °F 93% 30.09 in 10.0 mi WSW 8.1 mph - N/A   Overcast
6:53 AM 39.0 °F 34.8 °F 36.0 °F 89% 30.09 in 10.0 mi WSW 5.8 mph - N/A   Overcast
7:53 AM 42.1 °F 37.1 °F 37.0 °F 82% 30.10 in 10.0 mi WSW 8.1 mph - N/A   Overcast
8:53 AM 44.1 °F 37.7 °F 37.0 °F 76% 30.12 in 10.0 mi West 12.7 mph - N/A   Overcast
9:53 AM 48.9 °F - 34.0 °F 56% 30.12 in 10.0 mi WNW 12.7 mph - N/A   Clear
10:53 AM 48.0 °F - 36.0 °F 63% 30.11 in 10.0 mi NNW 12.7 mph 21.9 mph N/A   Mostly Cloudy
11:53 AM 48.9 °F - 35.1 °F 59% 30.10 in 10.0 mi NNW 13.8 mph 18.4 mph N/A   Mostly Cloudy
12:53 PM 51.1 °F - 30.0 °F 44% 30.08 in 10.0 mi NW 19.6 mph - N/A   Mostly Cloudy
1:53 PM 52.0 °F - 28.0 °F 40% 30.07 in 10.0 mi NNW 25.3 mph 34.5 mph N/A   Scattered Clouds
2:53 PM 52.0 °F - 24.1 °F 34% 30.07 in 10.0 mi NW 27.6 mph 33.4 mph N/A   Scattered Clouds
3:53 PM 55.0 °F - 26.1 °F 33% 30.07 in 10.0 mi NNW 23.0 mph 33.4 mph N/A   Scattered Clouds
4:53 PM 48.9 °F - 28.9 °F 46% 30.09 in 10.0 mi NNW 24.2 mph 32.2 mph N/A   Mostly Cloudy
5:53 PM 50.0 °F - 28.9 °F 44% 30.09 in 10.0 mi North 15.0 mph - N/A   Scattered Clouds
6:53 PM 48.0 °F - 24.1 °F 39% 30.11 in 10.0 mi NW 15.0 mph - N/A   Partly Cloudy
7:53 PM 39.0 °F 34.8 °F 27.0 °F 62% 30.14 in 10.0 mi NW 5.8 mph - N/A   Clear
8:53 PM 34.0 °F - 26.1 °F 73% 30.17 in 10.0 mi Calm Calm - N/A   Clear
9:53 PM 27.0 °F - 21.9 °F 81% 30.19 in 10.0 mi Calm Calm - N/A   Clear
10:53 PM 27.0 °F 23.0 °F 24.1 °F 89% 30.18 in 10.0 mi SSW 3.5 mph - N/A   Clear
11:53 PM 26.1 °F 19.4 °F 23.0 °F 88% 30.16 in 10.0 mi South 5.8 mph - N/A   Clear